OneWeb SL0499

operational
NORAD ID: 54117 Int'l Des: 2022-138 Owner: ONEWEBN Country: UK Constellation: oneweb
LEOCIRCULARPOLARONEWEB_TYPE

关于 OneWeb SL0499

正在加载描述...

实时位置

正在加载3D地球...

即将过境

高度历史

Altitude vs Time

uPlot chart will show altitude changes over time

两行轨道根数

1 54117U 22138E 26095.12221393 .00000095 00000-0 20468-3 0 9996
2 54117 87.9184 319.5416 0001840 90.5930 269.5413 13.19723870167189
Epoch: Apr 5, 2026 • Age: 9 hours

当前状态

高度 1201.4 km
速度 7.25 km/s
星下点 -38.75°S, 53.53°W
发射日期 Oct 22, 2022
运行时间 3.4 years
类型 internet

技术详情

分类 Payload
质量 148.00 kg
干质量 140.00 kg
总质量 148.00 kg
长度 1.30 m
直径 1.00 m
跨度 5.00 m
形状 Trapezoid+2 pan
制造商 ONEWUS
平台类型 ARROW
阶段状态 In Orbit
所有者/国家 ONEWEBN/UK

大型星座

Loading constellations...